Weather Roundup
Issued by NWS

Home | Current Version | Previous Version | Graphics & Text | Print | Product List | Glossary Off
Versions: 1 2 3 4 5 6 7 8 9 10 11 12 13 14 15 16 17 18 19 20 21 22 23 24 25 26 27 28 29 30 31 32 33 34 35 36 37 38 39 40 41 42 43 44 45 46 47 48 49 50

119
NZUS93 KARX 250759
HRRWXR

CURRENT HOURLY OBSERVATIONS ACROSS
MUCH OF THE UPPER MISSISSIPPI VALLEY
NATIONAL WEATHER SERVICE LA CROSSE WI
300 AM CDT FRI MAY 25 2018


...SOUTHEAST MINNESOTA...


CITY           SKY/WX    TMP DP  RH WIND       PRES   REMARKS
ROCHESTER      FAIR      68  58  70 S9        29.90F
ROCHESTER/MAYO FAIR      71  57  63 SE3       29.90S
WINONA         FAIR      70  64  83 SE3       29.88F
AUSTIN         FAIR      70  59  68 CALM      29.90S
ALBERT LEA     FAIR      70  57  64 S6        29.89S
DODGE CENTER   FAIR      66  57  72 S10       29.90S
PRESTON        FAIR      67  59  77 SW3       29.92S
OWATONNA       FAIR      68  61  77 SE10      29.87F
FARIBAULT      FAIR      72  61  68 CALM      29.86F
$$

...ELSEWHERE IN MINNESOTA...


CITY           SKY/WX    TMP DP  RH WIND       PRES   REMARKS
MINNEAPOLIS    CLOUDY    71  64  78 W6        29.88R
INTNL FALLS    FAIR      65  64  97 CALM      29.68F
DULUTH         FAIR      66  58  75 SW14      29.79F
RED WING       FAIR      68  63  83 SE7       29.86F
REDWOOD FALLS  PTCLDY    67  63  87 SE8       29.81F
MANKATO        FAIR      74  62  66 S15       29.84F
WORTHINGTON    PTCLDY    70  64  81 S14       29.85F
FAIRMONT       PTCLDY    71  64  78 S12       29.86F
$$

...SOUTHWEST WISCONSIN...


CITY           SKY/WX    TMP DP  RH WIND       PRES   REMARKS
LA CROSSE      FAIR      73  65  75 SE7       29.88F
PRAIRIE DU CHI FAIR      71  60  67 CALM      29.92F
BOSCOBEL       FAIR      65  62  90 CALM      29.93F
LONE ROCK      NOT AVBL
PLATTEVILLE    FAIR      69  62  77 S7        29.97F
FORT MC COY    FAIR      65  63  91 CALM      29.93F
MAUSTON-NEW LI FAIR      75  62  65 SW8       29.93S
VIROQUA        FAIR      71  64  78 S8        29.95S
WIS DELLS      FAIR      70  59  69 S7        29.95S
$$

...ELSEWHERE IN WISCONSIN...


CITY           SKY/WX    TMP DP  RH WIND       PRES   REMARKS
MILWAUKEE      FAIR      67  54  63 SW8       29.96F
MADISON        FAIR      70  60  70 S6        29.94F
GREEN BAY      FAIR      69  59  70 S7        29.91F
EAU CLAIRE     NOT AVBL
BLACK RVR FLS  FAIR      65  65 100 SE3       29.90F
MEDFORD        FAIR      67  57  69 SW6       29.91F
WAUSAU         FAIR      69  63  81 VRB3      29.89F
WIS RAPIDS     FAIR      69  62  78 SW5       29.93F
MARSHFIELD     FAIR      67  61  81 SW5       29.91F
RICE LAKE      LGT RAIN  68  62  81 SE6       29.86F
$$

...NORTHEAST IOWA...


CITY           SKY/WX    TMP DP  RH WIND       PRES   REMARKS
WATERLOO       FAIR      69  64  84 S8        29.91F
DUBUQUE        FAIR      66  58  75 S7        29.96F
DECORAH        FAIR      68  64  88 S6        29.92F
MASON CITY     PTCLDY    68  64  87 S6        29.91F
CHARLES CITY   FAIR      68  63  83 S8        29.91F
OELWEIN        FAIR      68  64  88 S7        29.93F
$$

...ELSEWHERE IN IOWA...


CITY           SKY/WX    TMP DP  RH WIND       PRES   REMARKS
DES MOINES     MOCLDY    70  65  84 S7        29.91F
IOWA CITY      FAIR      71  62  73 CALM      29.97F
FORT DODGE     CLOUDY    73  64  73 S10       29.90F
MARSHALLTOWN   PTCLDY    70  66  87 S9        29.92F
CEDAR RAPIDS   FAIR      70  61  73 S5        29.94F
$$

...NORTHERN ILLINOIS...


CITY           SKY/WX    TMP DP  RH WIND       PRES   REMARKS
CHICAGO-OHARE  FAIR      69  51  52 S7        29.99F
CHICAGO-MIDWAY FAIR      70  50  49 S6        29.99F
MOLINE         FAIR      65  60  84 CALM      29.96F
ROCKFORD       FAIR      63  57  81 CALM      29.99F
PEORIA         FAIR      67  60  78 CALM      30.00F
$$

NOTE: "FAIR" INDICATES FEW OR NO CLOUDS BELOW 12,000 FEET WITH NO
SIGNIFICANT WEATHER AND/OR OBSTRUCTIONS TO VISIBILITY. WIND
SPEEDS ARE IN MILES-PER-HOUR.




USA.gov is the U.S. government's official web portal to all federal, state and local government web resources and services.